Weather History for Ketchikan, AK

Change the Weather History Date:

Saturday, November 24, 2012

  Actual Average Record
Temperature  
Mean Temperature 42 °F -  
Max Temperature 45 °F 43 °F 56 °F (1954)
Min Temperature 39 °F 33 °F 14 °F (1955)
Degree Days  
Heating Degree Days 23    
Moisture  
Dew Point 40 °F    
Average Humidity 89    
Maximum Humidity 96    
Minimum Humidity 81    
Precipitation  
Precipitation 0.83 in - - ()
Sea Level Pressure  
Sea Level Pressure 29.86 in    
Wind  
Wind Speed 15 mph (SE)    
Max Wind Speed 21 mph    
Max Gust Speed 37 mph    
Visibility 8 miles    
Events Rain    
Averages and records for this station are not official NWS values.
T = Trace of Precipitation, MM = Missing Value Source: NWS Daily Summary

Daily Weather History Graph

Daily Weather History Graph

Search for Another Location

Airport:

Trip Planner

Search our weather history database for the weather conditions in past years. The results will help you decide how hot, cold, wet, or windy it might be!

Date:

Astronomy

Nov. 24, 2012 Rise Set
Actual Time 7:39 AM AKST 3:27 PM AKST
Civil Twilight 6:55 AM AKST 4:11 PM AKST
Nautical Twilight 6:09 AM AKST 4:57 PM AKST
Astronomical Twilight 5:25 AM AKST 5:41 PM AKST
Moon 1:42 PM AKST (11/24) 3:32 AM AKST (11/24)
Length of Visible Light 9h 15m
Length of Day
7h 48m
Waxing Gibbous, 88% of the Moon is Illuminated
Nov 24
Waxing Gibbous
Nov 28
Full
Dec 6
Last Quarter
Dec 12
New
Dec 19
First Quarter

Hourly Weather History & Observations

Time (AKST) Temp. Windchill Dew Point Humidity Pressure Visibility Wind Dir Wind Speed Gust Speed Precip Events Conditions
12:53 AM 45.0 °F 37.4 °F 41.0 °F 86% 29.68 in 10.0 mi SE 18.4 mph 27.6 mph 0.05 in Rain Light Rain
1:53 AM 45.0 °F 37.4 °F 41.0 °F 86% 29.69 in 10.0 mi SE 18.4 mph 25.3 mph 0.05 in Rain Rain
2:38 AM 44.6 °F 36.4 °F 42.8 °F 93% 29.70 in 5.0 mi SE 20.7 mph 29.9 mph 0.07 in Rain Light Rain
3:07 AM 44.6 °F 36.9 °F 41.0 °F 87% 29.70 in 8.0 mi SE 18.4 mph 32.2 mph 0.01 in Rain Light Rain
3:24 AM 44.6 °F 37.8 °F 41.0 °F 87% 29.70 in 7.0 mi SE 15.0 mph 24.2 mph 0.04 in Rain Light Rain
3:53 AM 44.1 °F 36.5 °F 41.0 °F 89% 29.71 in 5.0 mi SE 17.3 mph 25.3 mph 0.11 in Rain Light Rain
4:10 AM 44.6 °F 36.9 °F 41.0 °F 87% 29.71 in 7.0 mi SE 18.4 mph 26.5 mph 0.03 in Rain Light Rain
4:53 AM 44.1 °F 36.2 °F 41.0 °F 89% 29.71 in 4.0 mi SE 18.4 mph 27.6 mph 0.13 in Rain Rain
5:23 AM 44.6 °F 37.8 °F 39.2 °F 81% 29.72 in 7.0 mi SE 15.0 mph 23.0 mph 0.05 in Rain Rain
5:53 AM 43.0 °F 34.5 °F 41.0 °F 93% 29.73 in 5.0 mi SE 19.6 mph - 0.16 in Rain Rain
6:06 AM 44.6 °F 37.8 °F 41.0 °F 87% 29.72 in 6.0 mi SE 15.0 mph 36.8 mph 0.02 in Rain Light Rain
6:53 AM 44.1 °F 36.5 °F 41.0 °F 89% 29.74 in 7.0 mi SE 17.3 mph 26.5 mph 0.09 in Rain Light Rain
7:53 AM 44.1 °F 37.4 °F 41.0 °F 89% 29.76 in 6.0 mi SSE 13.8 mph 28.8 mph 0.05 in Rain Light Rain
8:53 AM 44.6 °F 37.4 °F 41.0 °F 87% 29.78 in 5.0 mi SE 16.1 mph - N/A Rain Light Rain
9:53 AM 44.1 °F 36.2 °F 42.1 °F 93% 29.80 in 7.0 mi SE 18.4 mph - 0.07 in Rain Light Rain
10:53 AM 43.0 °F 34.5 °F 41.0 °F 93% 29.81 in 9.0 mi SE 19.6 mph 28.8 mph 0.05 in Rain Light Rain
11:53 AM 44.6 °F 37.2 °F 42.8 °F 93% 29.81 in 8.0 mi SE 17.3 mph - N/A Rain Light Rain
12:53 PM 44.1 °F 38.1 °F 43.0 °F 96% 29.83 in 10.0 mi SE 11.5 mph - 0.00 in Rain Light Rain
1:53 PM 45.0 °F 39.3 °F 42.1 °F 90% 29.85 in 10.0 mi SE 11.5 mph - 0.01 in   Overcast
2:53 PM 45.0 °F 39.7 °F 42.1 °F 90% 29.86 in 10.0 mi SE 10.4 mph - N/A   Overcast
3:53 PM 44.1 °F 39.5 °F 41.0 °F 89% 29.88 in 10.0 mi SE 8.1 mph - N/A   Overcast
4:53 PM 44.1 °F 39.5 °F 41.0 °F 89% 29.91 in 10.0 mi ESE 8.1 mph - 0.01 in   Overcast
5:53 PM 43.0 °F 41.3 °F 41.0 °F 93% 29.94 in 10.0 mi SE 3.5 mph - 0.00 in   Overcast
6:53 PM 42.1 °F 39.2 °F 41.0 °F 96% 29.97 in 9.0 mi SSE 4.6 mph - 0.00 in Rain Light Rain
7:36 PM 42.8 °F 40.1 °F 41.0 °F 93% 30.00 in 4.0 mi North 4.6 mph - 0.04 in Rain Rain
7:53 PM 42.1 °F 37.1 °F 39.0 °F 89% 30.01 in 10.0 mi North 8.1 mph - 0.04 in   Overcast
8:00 PM 42.8 °F 37.0 °F 39.2 °F 87% 30.01 in 10.0 mi NW 10.4 mph - N/A   Overcast
8:53 PM 42.1 °F 37.1 °F 37.9 °F 85% 30.05 in 10.0 mi North 8.1 mph - 0.01 in   Overcast
9:00 PM 42.8 °F 37.5 °F 37.4 °F 81% 30.05 in 10.0 mi NNW 9.2 mph - N/A   Overcast
9:25 PM 41.0 °F 38.0 °F 37.4 °F 87% 30.06 in 10.0 mi Variable 4.6 mph - N/A   Overcast
9:42 PM 41.0 °F 38.0 °F 37.4 °F 87% 30.07 in 10.0 mi NW 4.6 mph - N/A   Mostly Cloudy
9:53 PM 39.9 °F 35.1 °F 36.0 °F 86% 30.08 in 10.0 mi NW 6.9 mph - N/A   Scattered Clouds
10:53 PM 39.9 °F 36.7 °F 36.0 °F 86% 30.12 in 10.0 mi NW 4.6 mph - N/A   Mostly Cloudy
11:53 PM 39.9 °F - 36.0 °F 86% 30.15 in 10.0 mi Calm Calm - N/A   Overcast